This is the latest recevied weather packets stored in our database for station/object IR3AS. If no packets are shown the sender has not sent any weather packets the latest 10 day(s).
| Time | Temp. | Humidity | Pressure | Rain* | Wind** | Luminosity | Snow |
|---|---|---|---|---|---|---|---|
| 1777878054 | 8.89° C | 61% | 859.8 hPa | 0 mm | - | - | - |
| 1777877754 | 8.89° C | 60% | 859.7 hPa | 0 mm | - | - | - |
| 1777877454 | 9.44° C | 59% | 859.5 hPa | 0 mm | - | - | - |
| 1777877154 | 10.56° C | 57% | 859.4 hPa | 0 mm | - | - | - |
| 1777876854 | 10.56° C | 56% | 859.2 hPa | 0 mm | - | - | - |
| 1777876554 | 10.56° C | 57% | 859.1 hPa | 0 mm | - | - | - |
| 1777876254 | 10° C | 58% | 859 hPa | 0 mm | - | - | - |
| 1777875954 | 8.89° C | 60% | 859.2 hPa | 0 mm | - | - | - |
| 1777875654 | 7.78° C | 61% | 859.1 hPa | 0 mm | - | - | - |
| 1777875354 | 7.78° C | 60% | 858.9 hPa | 0 mm | - | - | - |
| 1777875054 | 8.33° C | 58% | 859.1 hPa | 0 mm | - | - | - |
| 1777874754 | 8.89° C | 57% | 858.8 hPa | 0 mm | - | - | - |
| 1777874454 | 9.44° C | 57% | 858.9 hPa | 0 mm | - | - | - |
| 1777874155 | 9.44° C | 57% | 858.8 hPa | 0 mm | - | - | - |
| 1777873855 | 8.89° C | 58% | 858.8 hPa | 0 mm | - | - | - |
| 1777873555 | 8.89° C | 59% | 858.5 hPa | 0 mm | - | - | - |
| 1777873255 | 8.33° C | 60% | 858.3 hPa | 0 mm | - | - | - |
| 1777872955 | 7.78° C | 61% | 858.3 hPa | 0 mm | - | - | - |
| 1777872655 | 7.22° C | 62% | 858.1 hPa | 0 mm | - | - | - |
| 1777872355 | 6.67° C | 63% | 858.1 hPa | 0 mm | - | - | - |
| 1777872055 | 6.11° C | 64% | 858 hPa | 0 mm | - | - | - |
| 1777871755 | 5.56° C | 64% | 858 hPa | 0 mm | - | - | - |
| 1777871455 | 5.56° C | 65% | 857.9 hPa | 0 mm | - | - | - |
| 1777871155 | 5° C | 65% | 857.9 hPa | 0 mm | - | - | - |
| 1777870855 | 5° C | 65% | 857.9 hPa | 0 mm | - | - | - |
* Rain latest hour (hover to see other rain measurements)
** Current wind speed in m/s (hover to see current wind gust speed)